OBJECT A, 60012

Orbit data source: Space-Track

You're viewing an Uncataloged Satellite

Recently launched and/or uncataloged satellites may have evolving metadata. Metadata may include but not limited to: Owner, Maufacturer, Bus, Motor, and Mission.

OBJECT A, 60012 is a Chinese satellite in SSO that was launched on Thu, 06 Jun 2024 UTC via a GUSHENXING 1 launch vehicle from the Jiuquan Satellite Launch Center, China (JSC). Unknown objects in Earth's orbit typically refer to objects detected orbiting the Earth but have not yet been identified or cataloged. These objects could be anything from previously untracked satellites, spent rocket stages, debris from satellite collisions, or even natural meteoroids temporarily captured by Earth's gravity.

Loading next visibility...
Identifier
60012, 2024-110A
Orbit
SSO
Country
Flag of CNCN / PRC
Related business
Flag of CNBeijing Mumei Xingkong Keji YG (CN)
Manufacturer
Changguang WJ
Mission
Operational spacecraft
Bus & Motor
JL1GF4, Unknown motor
Mass
~112 kg wet, ~112 kg dry
Launch date (UTC)
2024-06-06 (1 year ago)
Launch vehicle
GUSHENXING 1
Launch site
Jiuquan Satellite Launch Center, China (JSC)
Object type
Unknown
Shape & HBR
Unknown
Radar Cross Section
Medium (>0.1 m² and <1 m²)

Expand to show TLE details & history
Last TLE update: 8 hours ago

TLE from 8 hours ago
0 OBJECT A
1 60012U 24110A   25259.62837118  .00009272  00000-0  51617-3 0  9999
2 60012  97.5800 348.5832 0011845 305.6111  54.4016 15.13801064 70577
Epoch: 2025-09-16T15:04Z
TLE epoch observation values (Epoch: 2025-09-16T15:04:51.269Z)
Latitude
-0.00007°
Longitude
126.55365°
Altitude
522.944 km
Speed
7.604 km/s
True Right ascension
23h 14m 19s
True Declination
0° 00' 00"
Sunlit
Object was in full shadow at epoch
Visualization orbit readout
Latitude
Unknown
Longitude
Unknown
Altitude
Unknown
Speed
Unknown
Apparent Right ascension
Unknown
Apparent Declination
Unknown
Sunlit
N/A
Visualization observer readout
Local Sidereal Time
16:14:31
Azimuth
Unknown
Elevation
Unknown
Doppler factor
Unknown
Orbital elements
Apogee altitude
529.775 km
Perigee altitude
513.43 km
Semi-major axis
6,899.739 km
Eccentricity
0.00118
Inclination
97.58°
RAAN
348.5832°
Arg. of periapsis
305.6111°
True anomaly
54.51206°
Mean anomaly
54.4016°
Eccentric anomaly
54.45682°
Mean motion
3.78699 °/min
Orbital period
95.06 mins
BSTAR
0.00051617
Loading maneuver chart data...
Computing Atmospheric mass density...
Loading historical data...
Loading historical data...
Loading historical data...
Loading historical data...
Loading historical data...
Loading historical data...
Loading historical data...
Other satellites on launch #110 in the year 2024 (2024-06-06 UTC)

Documentation

Showing up to 5 results
|